Regional Weather Roundup
Issued by NWS Kansas City/Pleasant Hill, MO

Home | Current Version | Previous Version | Text Only | Print | Product List | Glossary On
Versions: 1 2 3 4 5 6 7 8 9 10 11 12 13 14 15 16 17 18 19 20 21 22 23 24 25 26 27 28 29 30 31 32 33 34 35 36 37 38 39 40 41 42 43 44 45 46 47 48 49 50
000
ASUS43 KEAX 070204
RWREAX

WEATHER ROUNDUP FOR EASTERN KANSAS AND NORTHWEST MISSOURI
NATIONAL WEATHER SERVICE KANSAS CITY/PLEASANT HILL MO
900 PM CDT WED MAY 06 2015

KSZ040-057-103>105-MOZ028-029-037-043-070300-
...KANSAS CITY METROPOLITAN AREA...

CITY           SKY/WX    TMP DP  RH WIND       PRES   REMARKS
K.C. INTL      PTCLDY    72  58  61 SE22G28   29.83F
K.C. DOWNTOWN  CLEAR     74  56  53 VRB6G17   29.84S
LEES SUMMIT    CLEAR     73  55  53 SE12G20   29.86F
OLATHE - IXD   PTCLDY    71  56  58 SE15      29.86R
OLATHE - OJC   PTCLDY    70  58  65 SE12      29.85R
LAWRENCE       MOCLDY    71  59  65 SE14      29.82R

$$

MOZ001>008-011>017-020>025-030>033-038>040-044>046-053-054-070300-
...NORTHERN AND CENTRAL MISSOURI...

CITY           SKY/WX    TMP DP  RH WIND       PRES   REMARKS
ST. JOSEPH     PTCLDY    69  62  78 SE15      29.81F
MOSBY          CLEAR     72  57  60 SE7       29.87R
HARRISONVILLE  PTCLDY    73  57  56 SE12G18   29.90R
WARRENSBURG    CLEAR     70  54  56 SE10G17   29.89F
WHITEMAN AFB   PTCLDY    72  56  57 S10       29.89F
CLINTON        CLEAR     73  57  56 SE13      29.91S
SEDALIA        CLEAR     72  55  55 SE10      29.92F
WARSAW         NOT AVBL
MARSHALL       CLEAR     72  59  64 SE10      29.92F
CHILLICOTHE      N/A     69  61  75 SE6       29.90F
MOBERLY        CLOUDY    73  54  49 SE7       29.97R
KIRKSVILLE     CLEAR     67  60  78 SE8       29.95S

$$

MOZ041-047>049-056>058-063>065-088>090-097-070300-
...EASTERN AND SOUTHERN MISSOURI...

CITY           SKY/WX    TMP DP  RH WIND       PRES   REMARKS
ST. LOUIS INTL PTCLDY    80  50  34 S10       30.02R
SPIRIT OF STL  CLEAR     76  50  40 CALM      29.99R
COLUMBIA       CLOUDY    74  55  51 SE9       29.97R
JEFFERSON CITY CLOUDY    75  55  49 SE7       29.97R
MEXICO         CLEAR     72  61  68 S7        29.97R
HANNIBAL       CLOUDY    77  50  38 SE7       29.98R
ROLLA          PTCLDY    71  53  52 S8        30.00R
LEBANON        CLEAR     72  54  53 SE10      29.99S
OSAGE BEACH    CLEAR     73  54  49 SE6       29.97F
SPRINGFIELD    PTCLDY    72  55  55 SE13      29.94S
BRANSON        CLEAR     70  55  60 SE8       29.99S
NEVADA         MOCLDY    70  57  64 SE12      29.90S
JOPLIN         MOCLDY    73  55  53 MISG      29.89S
WEST PLAINS    MOCLDY    70  54  56 S3        30.03R

$$

IAZ060-094-KSZ022-034>040-054-083-096-NEZ052-066-093-070300-
...KANSAS...SOUTHEAST NEBRASKA AND IOWA...

CITY           SKY/WX    TMP DP  RH WIND       PRES   REMARKS
TOPEKA         PTCLDY    72  57  59 SE21G26   29.78S
MANHATTAN      MOCLDY    72  64  76 S24G35    29.72R
EMPORIA        CLOUDY    70  61  73 SE21G28   29.79R
CHANUTE        CLOUDY    71  58  63 SE16G24   29.83R
WICHITA        CLOUDY    71  65  81 S35G44    29.72R THUNDER
OMAHA          CLOUDY    69  59  70 SE21      29.76S THUNDER
LINCOLN        TSTM      61  59  93 SW20G33   29.71S FOG
FALLS CITY     CLOUDY    68  61  78 SE12G28   29.76S
LAMONI         PTCLDY    69  58  67 SE12      29.88F
DES MOINES     MOCLDY    70  58  65 S15       29.88S

$$



USA.gov is the U.S. government's official web portal to all federal, state and local government web resources and services.